GW5341 Weather Reports


Display with metric or nautical units.
time (UTC)temp
F
wind
direction
speed
MPH
gust
MPH
rain 1hr
in
rain 24hr
in
rain mn
in
humidity
%
barometer
mb
20260505173505 43 31 6.0 12.0 0.00 0.25 0.06 81 1009.8
20260505173004 42 77 6.0 12.0 0.00 0.25 0.06 80 1010.1
20260505172503 42 58 7.0 13.0 0.00 0.25 0.06 80 1010.2
20260505172005 42 60 5.0 14.0 0.00 0.25 0.06 80 1010.3
20260505171515 43 341 8.0 14.0 0.00 0.25 0.06 79 1010.4
20260505171004 43 301 6.0 9.0 0.00 0.25 0.06 79 1010.5
20260505170505 43 316 4.0 9.0 0.01 0.25 0.06 80 1010.5
20260505170017 42 342 4.0 8.0 0.01 0.25 0.06 78 1010.6
20260505165505 42 61 1.0 5.0 0.02 0.25 0.06 81 1010.6
20260505165009 42 48 0.0 5.0 0.02 0.25 0.06 78 1010.7
20260505164516 42 353 1.0 5.0 0.02 0.25 0.06 82 1010.7
20260505164005 41 307 2.0 6.0 0.02 0.25 0.06 77 1010.8
20260505163505 41 97 0.0 7.0 0.02 0.25 0.06 85 1010.5
20260505163021 41 94 2.0 7.0 0.02 0.25 0.06 85 1010.3
20260505162506 40 347 3.0 7.0 0.02 0.25 0.06 83 1010.8
20260505162010 40 71 4.0 5.0 0.02 0.25 0.06 88 1010.6
20260505161505 40 114 1.0 6.0 0.02 0.25 0.06 88 1010.9
20260505161003 40 147 0.0 11.0 0.02 0.25 0.06 89 1011.0
20260505160507 40 282 4.0 12.0 0.01 0.24 0.05 86 1011.0
20260505153020 41 346 0.0 0.0 0.00 0.23 0.04 87 1010.8
20260505152507 41 319 0.0 1.0 0.00 0.23 0.04 87 1010.8
20260505152008 41 304 0.0 1.0 0.00 0.23 0.04 87 1010.8
20260505151524 41 314 0.0 0.0 0.00 0.23 0.04 88 1010.9
20260505151006 40 223 0.0 0.0 0.00 0.23 0.04 89 1010.9
20260505150507 40 299 0.0 1.0 0.00 0.23 0.04 88 1011.0
20260505140507 38 311 1.0 3.0 0.00 0.23 0.04 91 1011.9
20260505125008 36 281 0.0 0.0 0.00 0.23 0.04 92 1011.7
20260505124525 36 46 0.0 0.0 0.00 0.23 0.04 92 1011.7
20260505124009 36 46 0.0 0.0 0.00 0.23 0.04 92 1011.6
20260505123509 36 46 0.0 0.0 0.00 0.23 0.04 92 1011.7
20260505123029 36 46 0.0 0.0 0.00 0.23 0.04 92 1011.7
20260505122506 36 44 0.0 0.0 0.00 0.23 0.04 93 1011.7
20260505122016 36 67 0.0 0.0 0.00 0.23 0.04 93 1011.7
20260505121514 36 62 0.0 0.0 0.00 0.23 0.04 93 1011.6
20260505121008 36 79 0.0 1.0 0.00 0.23 0.04 93 1011.7
20260505120508 36 84 0.0 3.0 0.00 0.23 0.04 93 1011.8
20260505120022 36 76 1.0 3.0 0.00 0.23 0.04 93 1011.7
20260505115507 36 39 0.0 0.0 0.00 0.23 0.04 92 1011.8
20260505115010 36 82 0.0 0.0 0.00 0.23 0.04 92 1011.7
20260505114523 36 262 0.0 0.0 0.00 0.23 0.04 92 1011.8
20260505114008 36 262 0.0 0.0 0.00 0.23 0.04 92 1011.8
20260505113507 36 262 0.0 0.0 0.00 0.23 0.04 92 1011.8
20260505113026 36 262 0.0 0.0 0.00 0.23 0.04 92 1011.9
20260505112514 36 262 0.0 0.0 0.00 0.23 0.04 92 1011.8
20260505112011 36 262 0.0 0.0 0.00 0.23 0.04 92 1011.9
20260505111535 36 262 0.0 0.0 0.00 0.23 0.04 92 1011.9
20260505111004 36 262 0.0 0.0 0.00 0.23 0.04 92 1011.9
20260505110503 36 276 0.0 1.0 0.00 0.23 0.04 92 1011.8
20260505102003 37 139 0.0 0.0 0.00 0.23 0.04 93 1012.0
20260505101509 37 124 0.0 0.0 0.00 0.23 0.04 93 1012.0
20260505101003 37 186 0.0 0.0 0.00 0.23 0.04 92 1012.2
20260505100506 37 186 0.0 0.0 0.00 0.23 0.04 92 1012.4
20260505100017 37 187 0.0 0.0 0.00 0.23 0.04 92 1012.5
20260505095503 37 186 0.0 2.0 0.00 0.23 0.04 92 1012.5
20260505095004 37 221 0.0 3.0 0.00 0.23 0.04 92 1012.4
20260505094519 37 162 0.0 3.0 0.00 0.23 0.04 92 1012.4
20260505094008 37 141 0.0 2.0 0.00 0.23 0.04 93 1012.5
20260505093503 37 216 0.0 0.0 0.00 0.23 0.04 93 1012.5
20260505093022 37 226 0.0 0.0 0.00 0.23 0.04 92 1012.5
20260505092507 37 148 0.0 0.0 0.00 0.23 0.04 92 1012.5
20260505092003 37 103 0.0 0.0 0.01 0.23 0.04 93 1012.6
20260505091504 37 336 0.0 0.0 0.01 0.23 0.04 93 1012.7
20260505091002 37 336 0.0 0.0 0.02 0.23 0.04 93 1012.7
20260505090503 37 99 0.0 3.0 0.02 0.23 0.04 93 1012.8
20260505090008 37 99 0.0 3.0 0.03 0.23 0.04 93 1013.0
20260505085503 36 104 1.0 4.0 0.04 0.23 0.04 93 1013.0
20260505085004 36 93 3.0 4.0 0.04 0.23 0.04 93 1013.0
20260505084519 36 87 0.0 0.0 0.04 0.23 0.04 93 1013.2
20260505084003 36 121 0.0 0.0 0.04 0.23 0.04 93 1013.3
20260505083503 36 121 0.0 0.0 0.04 0.23 0.04 93 1013.3
20260505083019 36 127 0.0 0.0 0.04 0.23 0.04 93 1013.4
20260505082507 36 108 0.0 0.0 0.04 0.23 0.04 93 1013.3
20260505082009 36 219 0.0 0.0 0.03 0.22 0.03 93 1013.6
20260505081539 36 219 0.0 0.0 0.03 0.22 0.03 93 1013.7
20260505081008 36 205 0.0 0.0 0.02 0.21 0.02 93 1013.6
20260505080507 36 205 0.0 0.0 0.02 0.21 0.02 93 1013.7
20260505080006 36 193 0.0 0.0 0.01 0.20 0.01 93 1013.6
20260505075504 36 217 0.0 0.0 0.00 0.19 0.00 93 1013.6
20260505075007 36 167 0.0 0.0 0.00 0.19 0.00 93 1013.5
20260505074512 36 154 0.0 0.0 0.00 0.19 0.00 93 1013.4
20260505074004 36 158 0.0 0.0 0.00 0.19 0.00 93 1013.5
20260505073504 36 218 0.0 0.0 0.00 0.19 0.00 93 1013.7
20260505073018 36 214 0.0 0.0 0.00 0.19 0.00 92 1013.7
20260505072505 36 214 0.0 0.0 0.00 0.19 0.00 92 1013.8
20260505072003 36 214 0.0 0.0 0.00 0.19 0.00 92 1013.8
20260505071542 37 213 0.0 0.0 0.00 0.19 0.00 92 1013.8
20260505071006 37 212 0.0 0.0 0.00 0.19 0.00 92 1013.8
20260505070505 37 246 0.0 0.0 0.00 0.19 0.00 92 1013.9
20260505070025 37 243 0.0 0.0 0.00 0.19 0.00 92 1014.0
20260505065507 37 151 0.0 0.0 0.00 0.19 0.00 92 1013.9
20260505065006 37 174 0.0 0.0 0.00 0.19 0.00 93 1014.0
20260505064527 37 113 0.0 0.0 0.00 0.19 0.00 92 1014.0
20260505064007 37 113 0.0 0.0 0.00 0.19 0.00 92 1013.9
20260505063504 37 258 0.0 0.0 0.00 0.19 0.00 92 1014.0
20260505063014 37 258 0.0 0.0 0.00 0.19 0.00 92 1014.1
20260505062504 37 245 0.0 0.0 0.00 0.19 0.00 92 1014.1
20260505062005 37 111 0.0 0.0 0.00 0.19 0.00 92 1014.1
20260505061518 37 103 0.0 0.0 0.00 0.19 0.00 91 1014.0
20260505061003 37 173 0.0 0.0 0.00 0.19 0.00 92 1013.9
20260505060509 37 174 0.0 0.0 0.00 0.19 0.00 92 1013.9
20260505060020 37 264 0.0 0.0 0.00 0.19 0.00 91 1014.0
20260505055510 37 271 0.0 0.0 0.00 0.19 0.19 91 1014.0
20260505055011 37 271 0.0 0.0 0.00 0.19 0.19 91 1014.0
20260505054532 37 271 0.0 0.0 0.00 0.19 0.19 91 1014.1
20260505054011 37 271 0.0 0.0 0.00 0.19 0.19 91 1014.2
20260505053510 37 271 0.0 0.0 0.00 0.19 0.19 91 1014.1
20260505053037 37 271 0.0 0.0 0.00 0.19 0.19 91 1014.1
20260505052511 37 271 0.0 0.0 0.00 0.19 0.19 90 1014.2
20260505052008 37 271 0.0 0.0 0.00 0.19 0.19 90 1014.3
20260505051523 37 271 0.0 0.0 0.00 0.19 0.19 90 1014.3
20260505051011 37 282 0.0 0.0 0.00 0.19 0.19 90 1014.3
20260505050505 37 288 0.0 0.0 0.00 0.19 0.19 90 1014.4
20260505041527 38 261 0.0 3.0 0.00 0.19 0.19 88 1014.3
20260505041008 38 148 0.0 5.0 0.00 0.19 0.19 89 1014.4
20260505040509 38 135 1.0 8.0 0.00 0.19 0.19 88 1014.3
20260505040036 38 96 4.0 8.0 0.00 0.19 0.19 88 1014.3
20260505035502 38 64 5.0 7.0 0.00 0.19 0.19 88 1014.3
20260505035002 38 96 4.0 9.0 0.00 0.19 0.19 88 1014.3
20260505034509 38 78 4.0 12.0 0.00 0.19 0.19 88 1014.2
20260505034003 38 124 9.0 12.0 0.00 0.19 0.19 87 1014.1
20260505033503 38 120 8.0 11.0 0.00 0.19 0.19 87 1014.1
20260505033011 38 91 7.0 13.0 0.00 0.19 0.19 88 1014.1
20260505032504 38 97 8.0 13.0 0.00 0.19 0.19 88 1014.1
20260505032006 38 72 8.0 12.0 0.00 0.19 0.19 88 1014.2
20260505031508 38 97 6.0 9.0 0.00 0.19 0.19 89 1014.0
20260505031005 38 98 2.0 4.0 0.00 0.19 0.19 89 1014.0
20260505030503 38 117 0.0 2.0 0.00 0.19 0.19 90 1013.9
20260505030023 38 161 1.0 2.0 0.00 0.19 0.19 90 1013.9
20260505025507 38 191 0.0 3.0 0.01 0.19 0.19 90 1013.8
20260505025004 38 217 1.0 3.0 0.01 0.19 0.19 90 1013.9
20260505024508 38 205 0.0 6.0 0.01 0.19 0.19 90 1013.8
20260505024003 38 197 0.0 6.0 0.01 0.19 0.19 90 1013.7
20260505023503 38 211 3.0 7.0 0.01 0.19 0.19 90 1013.8
20260505023015 38 213 2.0 7.0 0.01 0.19 0.19 90 1013.6
20260505022503 38 216 3.0 6.0 0.01 0.19 0.19 90 1013.7
20260505022004 38 229 2.0 6.0 0.01 0.19 0.19 90 1013.8
20260505021512 38 239 3.0 5.0 0.02 0.19 0.19 90 1013.8
20260505021002 38 229 3.0 5.0 0.04 0.19 0.19 89 1013.7
20260505020504 38 188 2.0 11.0 0.06 0.19 0.19 89 1013.6
20260505020012 38 181 2.0 12.0 0.08 0.19 0.19 88 1013.6
20260505015504 38 101 9.0 12.0 0.08 0.18 0.18 88 1013.5
20260505015005 38 101 8.0 11.0 0.10 0.18 0.18 88 1013.5
20260505014514 38 99 4.0 6.0 0.14 0.18 0.18 87 1013.9
20260505014003 38 78 4.0 6.0 0.16 0.18 0.18 87 1014.0
20260505013503 38 51 1.0 3.0 0.17 0.18 0.18 87 1014.0
20260505013013 38 68 2.0 4.0 0.18 0.18 0.18 87 1014.1
20260505012504 38 43 1.0 4.0 0.18 0.18 0.18 88 1014.2
20260505012003 38 337 2.0 10.0 0.18 0.18 0.18 88 1014.2
20260505011515 39 358 2.0 12.0 0.17 0.17 0.17 88 1014.1
20260505011008 39 335 9.0 14.0 0.15 0.15 0.15 88 1014.0
20260505010503 39 335 7.0 16.0 0.13 0.13 0.13 88 1013.8
20260505010012 39 333 10.0 16.0 0.11 0.11 0.11 87 1013.4
20260505005503 39 313 8.0 16.0 0.10 0.10 0.10 86 1013.3
20260505005004 40 333 10.0 17.0 0.08 0.08 0.08 83 1013.2
20260505004514 42 332 11.0 17.0 0.04 0.04 0.04 79 1013.2
20260505004004 45 337 10.0 17.0 0.02 0.02 0.02 71 1013.0
20260505003508 46 342 0.0 3.0 0.01 0.01 0.01 68 1012.7
20260505003011 46 96 1.0 7.0 0.00 0.00 0.00 65 1012.5
20260505002504 47 114 3.0 9.0 0.00 0.00 0.00 64 1012.5
20260505002004 47 89 5.0 9.0 0.00 0.00 0.00 64 1012.5
20260505001512 47 92 5.0 10.0 0.00 0.00 0.00 64 1012.7
20260505001007 47 102 3.0 14.0 0.00 0.00 0.00 65 1012.7
20260505000505 47 139 8.0 17.0 0.00 0.00 0.00 65 1012.7
20260505000018 47 104 11.0 17.0 0.00 0.00 0.00 63 1012.8
20260504235505 48 117 7.0 11.0 0.00 0.00 0.00 62 1012.8
20260504235003 48 104 7.0 11.0 0.00 0.00 0.00 61 1012.8
20260504234514 48 124 6.0 12.0 0.00 0.00 0.00 62 1012.8
20260504234003 49 123 8.0 12.0 0.00 0.00 0.00 60 1012.7
20260504233503 50 128 5.0 13.0 0.00 0.00 0.00 59 1012.7
20260504233016 50 150 8.0 15.0 0.00 0.00 0.00 61 1012.5
20260504232504 50 174 6.0 15.0 0.00 0.00 0.00 62 1012.6
20260504232006 49 126 8.0 13.0 0.00 0.00 0.00 61 1012.7
20260504231515 48 103 8.0 13.0 0.00 0.00 0.00 66 1012.7
20260504231008 47 137 3.0 8.0 0.00 0.00 0.00 68 1012.7
20260504230507 45 121 2.0 6.0 0.00 0.00 0.00 75 1013.0
20260504230016 45 211 3.0 15.0 0.00 0.00 0.00 74 1013.2
20260504225505 45 208 7.0 18.0 0.00 0.00 0.00 73 1013.3
20260504225006 47 243 13.0 20.0 0.00 0.00 0.00 65 1013.4
20260504224516 48 259 16.0 20.0 0.00 0.00 0.00 61 1013.4
20260504224003 49 251 6.0 10.0 0.00 0.00 0.00 58 1013.2
20260504223507 50 252 7.0 11.0 0.00 0.00 0.00 55 1013.2
20260504223015 50 243 8.0 11.0 0.00 0.00 0.00 53 1013.2
20260504222505 51 245 6.0 9.0 0.00 0.00 0.00 51 1013.2
20260504222006 52 136 4.0 8.0 0.00 0.00 0.00 54 1013.1
20260504221522 50 234 4.0 13.0 0.00 0.00 0.00 60 1013.2
20260504221006 48 233 7.0 15.0 0.00 0.00 0.00 62 1013.4
20260504220506 47 231 10.0 15.0 0.00 0.00 0.00 64 1013.5
20260504220023 46 212 11.0 19.0 0.00 0.00 0.00 64 1013.4
20260504215504 46 223 12.0 20.0 0.00 0.00 0.00 65 1013.4
20260504215007 46 214 11.0 25.0 0.00 0.00 0.00 69 1013.4
20260504214519 45 224 17.0 25.0 0.00 0.00 0.00 67 1013.4
20260504214008 46 260 18.0 23.0 0.00 0.00 0.00 66 1013.3
20260504213507 46 259 16.0 23.0 0.00 0.00 0.00 63 1013.5
20260504213018 47 224 14.0 22.0 0.00 0.00 0.00 63 1013.8
20260504212504 48 264 16.0 24.0 0.00 0.00 0.00 60 1013.8
20260504212003 48 233 17.0 24.0 0.00 0.00 0.00 57 1013.7
20260504211519 48 248 19.0 28.0 0.00 0.00 0.00 55 1013.5
20260504211003 49 245 17.0 30.0 0.00 0.00 0.00 54 1013.5
20260504210506 50 277 22.0 30.0 0.00 0.00 0.00 52 1013.2
20260504210011 52 268 16.0 32.0 0.00 0.00 0.00 48 1013.1
20260504205505 55 272 18.0 32.0 0.00 0.00 0.00 42 1013.0
20260504205005 57 301 13.0 18.0 0.00 0.00 0.00 32 1012.5
20260504204516 58 290 9.0 11.0 0.00 0.00 0.00 30 1012.3
20260504204007 58 256 5.0 11.0 0.00 0.00 0.00 28 1012.3
20260504203507 59 280 3.0 10.0 0.00 0.00 0.00 28 1012.2
20260504203021 60 94 4.0 21.0 0.00 0.00 0.00 30 1012.3
20260504202508 60 291 8.0 21.0 0.00 0.00 0.00 28 1012.3
20260504202007 61 297 11.0 21.0 0.00 0.00 0.00 30 1012.2
20260504201506 60 98 1.0 11.0 0.00 0.00 0.00 31 1012.5
20260504201002 60 284 4.0 10.0 0.00 0.00 0.00 31 1012.6
20260504200502 59 288 4.0 10.0 0.00 0.00 0.00 31 1012.8
20260504200016 58 29 3.0 18.0 0.00 0.00 0.00 33 1012.7
20260504195504 58 290 6.0 18.0 0.00 0.00 0.00 31 1012.8
20260504195003 57 292 8.0 13.0 0.00 0.00 0.00 31 1012.9
20260504194512 58 240 4.0 8.0 0.00 0.00 0.00 35 1012.9
20260504194005 57 228 3.0 13.0 0.00 0.00 0.00 39 1013.0
20260504193504 56 264 8.0 13.0 0.00 0.00 0.00 35 1013.0
20260504193017 57 283 3.0 12.0 0.00 0.00 0.00 34 1013.0
20260504192506 58 197 5.0 11.0 0.00 0.00 0.00 35 1013.0
20260504192007 58 292 6.0 17.0 0.00 0.00 0.00 35 1013.2
20260504191536 58 226 6.0 17.0 0.00 0.00 0.00 36 1013.2
20260504191007 57 269 8.0 16.0 0.00 0.00 0.00 34 1013.3
20260504190507 56 269 10.0 15.0 0.00 0.00 0.00 35 1013.4
20260504190004 55 266 7.0 10.0 0.00 0.00 0.00 40 1013.4
20260504185506 54 299 4.0 14.0 0.00 0.00 0.00 40 1013.6
20260504185002 54 274 9.0 14.0 0.00 0.00 0.00 38 1013.8
20260504184513 54 292 9.0 16.0 0.00 0.00 0.00 39 1013.8
20260504184003 54 285 4.0 19.0 0.00 0.00 0.00 42 1013.8
20260504183503 55 292 8.0 19.0 0.00 0.00 0.00 42 1014.0
20260504183033 56 322 11.0 19.0 0.00 0.00 0.00 41 1014.0
20260504182509 55 283 11.0 16.0 0.00 0.00 0.00 41 1014.1
20260504182007 54 275 8.0 16.0 0.00 0.00 0.00 43 1014.3
20260504181524 55 290 4.0 12.0 0.00 0.00 0.00 45 1014.4
20260504181007 54 276 5.0 12.0 0.00 0.00 0.00 45 1014.6
20260504180511 54 290 9.0 15.0 0.00 0.00 0.00 43 1014.9
20260504180026 55 304 8.0 18.0 0.00 0.00 0.00 40 1014.9
20260504175507 56 297 12.0 18.0 0.00 0.00 0.00 41 1014.9
20260504175007 55 241 11.0 16.0 0.00 0.00 0.00 42 1014.9
20260504174526 54 304 8.0 17.0 0.00 0.00 0.00 48 1014.9
20260504174003 54 301 10.0 17.0 0.00 0.00 0.00 44 1014.9